Hourly Data Report for August 21, 2006

TORONTO CITY
ONTARIO

43°40'00.000" N
79°24'00.000" W
112.50 m
6158355
71508
XTO

Download Data

Hourly Data (August 2006)
Hourly Data Report for August 21, 2006
TIME
LST
Temp Definition
°C
Dew Point Definition
°C
Rel Hum Definition
%
Precip. Amount Definition
mm

Wind Dir Definition
10's deg

Wind Spd Definition
km/h
Visibility Definition
km
Stn Press Definition
kPa
Hmdx Definition


Wind Chill Definition


Weather Definition


00:00 17.9 13.1 73   LegendMM LegendMM   100.35     LegendNANA
01:00 17.7 12.1 70   LegendMM LegendMM   100.36     LegendNANA
02:00 17.1 11.8 71   LegendMM LegendMM   100.37     LegendNANA
03:00 16.5 12.0 75   LegendMM LegendMM   100.41     LegendNANA
04:00 15.4 11.8 79   LegendMM LegendMM   100.42     LegendNANA
05:00 15.5 11.1 75   LegendMM LegendMM   100.49     LegendNANA
06:00 14.2 11.3 83   LegendMM LegendMM   100.52     LegendNANA
07:00 16.8 12.1 74   LegendMM LegendMM   100.54     LegendNANA
08:00 19.0 13.5 70   LegendMM LegendMM   100.55     LegendNANA
09:00 21.6 13.8 61   LegendMM LegendMM   100.56 25   LegendNANA
10:00 23.2 10.2 44   LegendMM LegendMM   100.53 25   LegendNANA
11:00 23.5 14.2 56   LegendMM LegendMM   100.54 27   LegendNANA
12:00 23.9 12.3 48   LegendMM LegendMM   100.52 26   LegendNANA
13:00 24.9 13.0 48   LegendMM LegendMM   100.49 28   LegendNANA
14:00 25.6 14.6 51   LegendMM LegendMM   100.42 29   LegendNANA
15:00 25.3 13.7 49   LegendMM LegendMM   100.37 28   LegendNANA
16:00 25.3 14.8 52   LegendMM LegendMM   100.33 29   LegendNANA
17:00 26.5 10.9 38   LegendMM LegendMM   100.29 28   LegendNANA
18:00 25.8 10.9 39   LegendMM LegendMM   100.29 28   LegendNANA
19:00 24.6 10.5 41   LegendMM LegendMM   100.30 26   LegendNANA
20:00 23.0 10.1 44   LegendMM LegendMM   100.31     LegendNANA
21:00 21.9 11.1 50   LegendMM LegendMM   100.34     LegendNANA
22:00 20.5 11.8 57   LegendMM LegendMM   100.33     LegendNANA
23:00 20.3 12.4 60   LegendMM LegendMM   100.39     LegendNANA

Notes on Data Quality.

Legend

  • E = Estimated
  • M = Missing
  • NA = Not Available*
  • [empty] = Indicates an unobserved value
Date modified: